Home   Weather   May Pen   Past weeks

Flag for Jamaica Past Weather in May Pen, Jamaica — Yesterday and Last 2 Weeks

Now
81 °F

Passing clouds.


Feels Like: 85 °F
Forecast: 75 / 89 °F
Wind: 3 mph from Northwest

Location: Kingston / Norman Manley

Current Time: Dec 10, 2016 at 11:26:45 pm

Latest Report: Dec 10, 2016 at 11:00 pm


Visibility: N/A

Pressure: 30.01 "Hg

Humidity: 74%

Dew Point: 72 °F

Location of May PenLocation

Past Weather in May Pen — Graph

°F

May Pen Temperature Yesterday

Maximum temperature yesterday: 86 °F (at 1:00 pm)
Minimum temperature yesterday: 77 °F (at 7:00 am)
Average temperature yesterday: 82 °F

High & Low Weather Summary for the Past Weeks

 TemperatureHumidityPressure
High90 °F (Dec 7, 1:00 pm)94% (Dec 5, 7:00 am)30.04 "Hg (Dec 5, 7:00 am)
Low75 °F (Nov 28, 7:00 am)46% (Nov 29, 10:00 am)29.77 "Hg (Nov 27, 3:00 pm)
Average82 °F72%29.91 "Hg
* Reported Nov 25 10:00 pm — Dec 10 10:00 pm, May Pen, Weather by CustomWeather, © 2016

Note: Actual official high and low records may vary slightly from our data, if they occured in-between our weather recording intervals... More about our weather records

Advertising

May Pen Weather History for the Previous 24 Hours

Scroll right to see more
 ConditionsComfort  
Time TempWeatherWind HumidityBarometerVisibility
10:00 pm
Sat, Dec 10
81 °FPassing clouds.3 mph74%30.01 "HgN/A
9:00 pm82 °FPassing clouds.9 mph66%30.01 "HgN/A
8:00 pm82 °FPassing clouds.9 mph66%29.98 "HgN/A
7:00 pm84 °FPassing clouds.9 mph66%29.98 "HgN/A
6:00 pm84 °FPassing clouds.10 mph66%29.95 "HgN/A
5:00 pm86 °FPassing clouds.7 mph62%29.95 "HgN/A
4:00 pm88 °FPassing clouds.7 mph59%29.95 "HgN/A
3:00 pm88 °FPassing clouds.9 mph59%29.92 "HgN/A
2:00 pm88 °FPassing clouds.8 mph59%29.95 "HgN/A
1:00 pm88 °FPassing clouds.9 mph59%29.95 "HgN/A
12:00 pm86 °FPassing clouds.9 mph59%30.01 "HgN/A
11:00 am86 °FPassing clouds.6 mph59%30.04 "HgN/A
10:00 am84 °FPassing clouds.5 mph66%30.04 "HgN/A
9:00 am82 °FPassing clouds.3 mph74%30.04 "HgN/A
8:00 am82 °FPassing clouds.8 mph70%30.01 "HgN/A
7:00 am77 °FPassing clouds.12 mph74%30.01 "HgN/A
6:00 am79 °FPassing clouds.5 mph70%29.98 "HgN/A
4:00 am79 °FPassing clouds.13 mph70%29.95 "HgN/A
3:00 am79 °FPassing clouds.15 mph70%29.95 "HgN/A
2:00 am81 °FPassing clouds.13 mph66%29.98 "HgN/A
1:00 am79 °FPassing clouds.9 mph70%30.01 "HgN/A
12:00 am79 °FPassing clouds.14 mph70%30.01 "HgN/A
11:00 pm
Fri, Dec 9
79 °FPassing clouds.15 mph74%30.01 "HgN/A
Weather by CustomWeather, © 2016

See weather overviewHow to use our weather pages